Regional Weather Roundup
Issued by NWS

Home | Current Version | Previous Version | Graphics & Text | Print | Product List | Glossary On
Versions: 1 2 3 4 5 6 7 8 9 10 11 12 13 14 15 16 17 18 19 20 21 22 23 24 25 26 27 28 29 30 31 32 33 34 35 36 37 38 39 40 41 42 43 44 45 46 47 48 49 50
000
ASUS43 KMPX 280501
RWRMN
WEATHER ROUNDUP FOR MINNESOTA
NATIONAL WEATHER SERVICE TWIN CITIES/CHANHASSEN MN
1200 AM CDT FRI AUG 28 2015


NOTE: "FAIR" INDICATES FEW OR NO CLOUDS BELOW 12,000 FEET WITH NO
SIGNIFICANT WEATHER AND/OR OBSTRUCTIONS TO VISIBILITY. N/A MEANS
CURRENT SKY AND/OR WEATHER CONDITIONS ARE NOT AVAILABLE.

MNZ060>063-068>070-280600-
   Twin Cities Metro

CITY           SKY/WX    TMP DP  RH WIND       PRES   REMARKS
TWIN CITIES    MOCLDY    67  59  75 S9        30.00F
ST PAUL        PTCLDY    65  59  81 SE5       30.01S
CRYSTAL        PTCLDY    67  59  75 S8        29.98F
BLAINE         PTCLDY    66  61  82 S8        30.00S
LAKEVILLE      MOCLDY    63  61  94 S5        30.01S
EDEN PRAIRIE   MOCLDY    65  59  81 S7        29.99F
SOUTH ST PAUL  PTCLDY    65  58  80 SE3       30.00F
LAKE ELMO      FAIR      63  59  88 S7        30.02S
$$
MNZ001>005-007-008-013>017-022>024-027-028-280600-
   Northwest Minnesota

CITY           SKY/WX    TMP DP  RH WIND       PRES   REMARKS
BEMIDJI        CLEAR     61  61  99 S5        29.93F
HALLOCK        CLEAR     63  61  94 S7        29.85F
ROSEAU         CLEAR     61  55  82 CALM      29.88F
WARROAD        CLEAR     61  57  88 CALM      29.89F
THIEF RVR FALL CLEAR    N/A N/A N/A S3        29.89S
CROOKSTON      CLEAR     63  61  94 S5        29.88F
FOSSTON        CLEAR     57  57 100 S6        29.92F
DETROIT LAKES  CLEAR     63  63 100 SE3       29.95F
MOORHEAD       CLEAR     66  64  94 SE7       29.91F
PARK RAPIDS    CLOUDY    66  62  87 CALM      29.95F
MAHNOMEN       CLOUDY    65  64  95 S6        29.92S
$$
MNZ006-009>011-018-025>026-280600-
   North Central Minnesota

CITY           SKY/WX    TMP DP  RH WIND       PRES   REMARKS
BAUDETTE       CLEAR     62  60  93 SE3       29.90F
FLAG ISLAND    CLEAR     66  64  94 SE3       29.87F
INTL FALLS     CLEAR     60  58  92 CALM      29.92F
WASKISH        CLEAR     64  63  94 SE5       29.91F
BIG FORK       CLEAR     61  59  94 CALM      29.95F
LONGVILLE      PTCLDY    61  61 100 CALM      29.95F
GRAND RAPIDS     N/A     63  57  82 S8        29.96F
CRANE LAKE     CLEAR     52  52 100 CALM      29.96S
ORR            MOCLDY    64  57  77 CALM      29.94S
COOK           CLEAR     63  59  88 S3        29.97R
WALKER         MOCLDY    65  62  91 SW5       29.95S
$$
MNZ012-019>021-037-280600-
   Northeast Minnesota

CITY           SKY/WX    TMP DP  RH WIND       PRES   REMARKS
DULUTH         CLOUDY    61  53  75 SE3       29.99F
ELY            MOCLDY    63  55  77 S3        29.97F
HIBBING        CLEAR     60  58  92 SE3       29.97F
EVELETH        CLOUDY    61  57  88 CALM      29.99S
DULUTH HARBOR  CLOUDY    57  52  82 N3        30.00S
TWO HARBORS    CLOUDY    61  55  82 CALM      29.98S
SILVER BAY     MOCLDY    59  55  88 CALM      29.98S
GRAND MARAIS     N/A     55  49  80 CALM      29.98F
G MARAIS ARPRT CLOUDY    52  46  82 CALM      30.02F
$$
MNZ029>031-032-039>041-046>048-054>057-064-280600-
   West Central Minnesota

CITY           SKY/WX    TMP DP  RH WIND       PRES   REMARKS
FERGUS FALLS   PTCLDY    66  66 100 S6        29.93S
WHEATON        PTCLDY    63  61  94 SE6       29.93F
MORRIS         PTCLDY    63  63 100 SE6       29.93F FOG
ALEXANDRIA     PTCLDY    64  63  96 S7        29.97F
ELBOW LAKE     FAIR      64  64  97 SE7       29.93F
WADENA         MOCLDY    63  63 100 SE3       29.95F
GLENWOOD       CLOUDY    63  61  94 SE5       29.97F FOG
APPLETON       MOCLDY    64  63  94 SE6       29.93S
BENSON         MOCLDY    64  61  88 S5        29.95S
ORTONVILLE     PTCLDY    64  63  94 S3        29.93S
MADISON        MOCLDY    64  63  94 SE3       29.95R FOG
WILLMAR        FAIR      64  63  94 SE3       29.98R
$$
MNZ033>034-036-042>043-049>051-058-059-280600-
   Central Minnesota

CITY           SKY/WX    TMP DP  RH WIND       PRES   REMARKS
ST CLOUD       PTCLDY    60  59  96 SE6       29.98F
SAUK CENTRE    FAIR      61  60  98 SE3       29.97F
PAYNESVILLE    PTCLDY    64  61  93 E3        29.97F
AITKIN         PTCLDY    66  61  82 S5        29.96S
PINE RIVER     PTCLDY    63  63 100 CALM      29.99F
BRAINERD       CLOUDY    66  62  87 S8        29.97F
STAPLES        CLOUDY    64  63  94 S6        29.96F
LONG PRAIRIE   MOCLDY    61  61 100 CALM      29.97F
LITTLE FALLS   PTCLDY    61  59  94 SE3       29.97F
LITCHFIELD     MOCLDY    63  63 100 SE5       29.98S
BUFFALO        PTCLDY    64  58  83 SE5       29.99F
MAPLE LAKE     PTCLDY    63  61  94 SE3       29.99F
$$
MNZ037-044-045-052-053-280600-
   East Central Minnesota

CITY           SKY/WX    TMP DP  RH WIND       PRES   REMARKS
PRINCETON      PTCLDY    64  59  82 S5        29.99F
MORA           PTCLDY    59  55  88 CALM      30.00F
CAMBRIDGE      PTCLDY    64  55  72 CALM      29.98S
RUSH CITY      PTCLDY    62  58  87 S5        30.00S
MOOSE LAKE     CLOUDY    64  59  82 CALM      29.97F
HINCKLEY       FAIR      61  61 100 CALM      29.99S
CLOQUET        CLOUDY    57  48  72 CALM      29.99F
MCGREGOR       PTCLDY    63  59  88 S3        29.98F
$$
MNZ071>073-080-081-089-090-097-098-280600-
   Southwest Minnesota

CITY           SKY/WX    TMP DP  RH WIND       PRES   REMARKS
MONTEVIDEO     CLOUDY    63  63 100 S3        29.97S FOG
GRANITE FALLS  CLOUDY    63  62  97 E3        29.97R
CANBY          CLOUDY    64  63  94 SE5       29.96R FOG
MARSHALL       CLOUDY    64  61  88 E5        29.98R
REDWOOD FALLS  CLOUDY    64  62  93 E7        29.95F
OLIVIA         CLOUDY    61  57  88 SE6       29.96S
PIPESTONE      LGT RAIN  64  63  94 S10G21    29.96R
WINDOM         LGT RAIN  64  61  88 SE13      29.98F
WORTHINGTON    CLOUDY    63  59  88 S10G16    30.00R
JACKSON        LGT SNOW  64  63  94 S14       30.03S
TRACY          LGT RAIN  66  64  91 S13       29.96R
SLAYTON        DRIZZLE   63  63 100 S15G23    29.96F
$$
MNZ065>067-074>077-082>085-091>093-280600-
   South Central Minnesota

CITY           SKY/WX    TMP DP  RH WIND       PRES   REMARKS
MANKATO        CLOUDY    64  57  77 SE10      29.99F
NEW ULM        CLOUDY    64  61  88 S10       29.98S
ST JAMES       LGT RAIN  64  63  94 S21G29    29.99S
FAIRMONT       CLOUDY    63  57  82 S14       30.03R
GLENCOE        CLOUDY    63  62  96 SE3       29.98F
FARIBAULT      CLOUDY    64  61  88 S8        30.02F
OWATONNA       CLOUDY    64  59  82 S7G17     30.02F
WASECA         CLOUDY    63  57  82 MISG      30.02F
ALBERT LEA     LGT RAIN  64  63  94 SE8       30.02F
$$
MNZ078>079-086>088-094>096-280600-
   Southeast Minnesota

CITY           SKY/WX    TMP DP  RH WIND       PRES   REMARKS
ROCHESTER      CLOUDY    63  59  87 S14       30.06S
RED WING       PTCLDY    66  59  77 S8        30.02R
STANTON        MOCLDY    65  59  81 S5        30.00S
DODGE CENTER   CLOUDY    63  59  88 S9        30.05S
WINONA         PTCLDY    63  59  88 SE3       30.05S
AUSTIN         CLOUDY    64  61  88 S9        30.04F
PRESTON        MOCLDY    62  58  86 S7        30.08R
$$
ABBREVIATIONS USED IN REMARKS
   TC - TEMPERATURES IN CELSIUS
  WCI - WIND CHILL INDEX
   HX - HEAT INDEX
  VSB - VISIBILITY
$$


USA.gov is the U.S. government's official web portal to all federal, state and local government web resources and services.